CZEM

Eastmain River Airport

ICAO Code CZEM
IATA Code ZEM
Name Eastmain River Airport
Location Eastmain River, Quebec, CA
Elevation 24 Feet / 7.3 Meters
Latitude 52.22638889
Longitude -78.52250000
METAR CZEM 142000Z 14008KT 15SM BKN180 20/15 A2979 RMK AC7 LAST STFD OBS/NEXT 151300 UTC SLP088 DENSITY ALT 800FT
Extra information Display Charts and CFS
Display NOTAMS
Runway Length Width Surface Elevation
02 3512 ft 100 ft GRAVEL 21 ft
20 3512 ft 100 ft GRAVEL 24 ft